STARLINK-34018, 63836

Orbit data source: Space-Track

STARLINK-34018, 63836 is a payload satellite owned by SpaceX/Seattle (US) in LEO that was launched on Wed, 07 May 2025 UTC via an FALCON 9 launch vehicle from the Air Force Eastern Test Range (AFETR). Payload-class satellites include a variety of spacecraft equipped with specific instruments for various scientific and technological missions. These include communications satellites like Starlink; space stations such as the ISS; scientific satellites like the Hubble; Earth observation satellites from companies like Planet Labs, Umbra, and HawkEye 360; GPS; miniature CubeSats for education and research; and military/defense satellites.

Loading next visibility...
Identifier
63836, 2025-093A
Orbit
LEO
Country
Flag of USUS
Related business
Manufacturer
SpaceX/Seattle
Mission
Operational Commercial Communications
Bus & Motor
STARLINK V2MO, Unknown motor
Mass
575 kg wet, ~530 kg dry
Launch date (UTC)
2025-05-07 (7 months ago)
Launch vehicle
FALCON 9
Launch site
Air Force Eastern Test Range (AFETR)
Object type
Payload
Rocket body
Debris
Shape & HBR
Box + 2 Pan, 17.7 m
Radar Cross Section
36.964 m², Large (>1 m²)

Expand to show TLE details & history
Last TLE update: 16 hours ago

TLE from 16 hours ago
0 STARLINK-34018
1 63836U 25093A   25348.96803244  .00012670  00000-0  46909-3 0  9990
2 63836  43.0009 196.4997 0001550 272.4115  87.6560 15.27584672 35010
Epoch: 2025-12-14T23:13Z
TLE epoch observation values (Epoch: 2025-12-14T23:13:58.002Z)
Latitude
0.00002°
Longitude
124.1347°
Altitude
482.767 km
Speed
7.626 km/s
True Right ascension
13h 05m 59s
True Declination
0° 00' 00"
Sunlit
Object was in daylight at epoch
Visualization orbit readout
Latitude
Unknown
Longitude
Unknown
Altitude
Unknown
Speed
Unknown
Apparent Right ascension
Unknown
Apparent Declination
Unknown
Sunlit
N/A
Visualization observer readout
Local Sidereal Time
13:23:53
Azimuth
Unknown
Elevation
Unknown
Doppler factor
Unknown
Orbital elements
Apogee altitude
486.044 km
Perigee altitude
483.916 km
Semi-major axis
6,863.117 km
Eccentricity
0.00016
Inclination
43.0009°
RAAN
196.4997°
Arg. of periapsis
272.4115°
True anomaly
87.67375°
Mean anomaly
87.656°
Eccentric anomaly
87.66487°
Mean motion
3.81734 °/min
Orbital period
94.31 mins
BSTAR
0.00046909
Loading maneuver chart data...
Computing Atmospheric mass density...
Loading historical data...
Loading historical data...
Loading historical data...
Loading historical data...
Loading historical data...
Loading historical data...
Loading historical data...

Documentation

Showing up to 5 results
|